Salt Flat, TX

4:56 AM MST on February 11, 2016 (GMT -0700)
Guadalupe Pass

Weather History for KGDP - February, 2013

Change the Weather History Date:

Monday, February 11, 2013

  Actual Average Record
Temperature  
Mean Temperature 49 °F -  
Max Temperature 59 °F 53 °F 70 °F (2007)
Min Temperature 39 °F 33 °F 19 °F (2014)
Degree Days  
Heating Degree Days 16    
Moisture  
Dew Point 9 °F    
Average Humidity 22    
Maximum Humidity 29    
Minimum Humidity 15    
Precipitation  
Precipitation 0.00 in - - ()
Sea Level Pressure  
Sea Level Pressure 29.88 in    
Wind  
Wind Speed 11 mph (SW)    
Max Wind Speed 28 mph    
Max Gust Speed 37 mph    
Visibility 9 miles    
Events      
Averages and records for this station are not official NWS values.
T = Trace of Precipitation, MM = Missing Value Source: NWS Daily Summary

Daily Weather History Graph

Daily Weather History Graph

Search for Another Location

Airport or City:

Trip Planner

Search our weather history database for the weather conditions in past years. The results will help you decide how hot, cold, wet, or windy it might be!

Date:

Astronomy

Feb. 11, 2013 Rise Set
Actual Time 6:44 AM MST 5:42 PM MST
Civil Twilight 6:19 AM MST 6:07 PM MST
Nautical Twilight 5:50 AM MST 6:36 PM MST
Astronomical Twilight 5:22 AM MST 7:05 PM MST
Moon 7:19 AM MST 7:31 PM MST
Length of Visible Light 11h 48m
Length of Day
10h 58m
Waxing Crescent, 3% of the Moon is Illuminated
Feb 11
Waxing Crescent
Feb 17
First Quarter
Feb 25
Full
Mar 4
Last Quarter
Mar 11
New

Hourly Weather History & Observations

Time (MST) Temp. Windchill Dew Point Humidity Pressure Visibility Wind Dir Wind Speed Gust Speed Precip Events Conditions
12:51 AM 39.9 °F 34.5 °F 3.9 °F 22% 29.95 in 10.0 mi SW 8.1 mph - N/A   Clear
1:51 AM 39.9 °F 36.7 °F 3.0 °F 21% 29.94 in 10.0 mi WSW 4.6 mph - N/A   Clear
2:51 AM 43.0 °F 39.5 °F 3.0 °F 19% 29.92 in 10.0 mi South 5.8 mph - N/A   Clear
3:51 AM 43.0 °F 40.3 °F 3.0 °F 19% 29.91 in 10.0 mi South 4.6 mph - N/A   Clear
4:51 AM 42.1 °F 37.7 °F 3.9 °F 21% 29.92 in 10.0 mi SSE 6.9 mph - N/A   Clear
5:51 AM 42.1 °F 40.2 °F 3.0 °F 20% 29.95 in 10.0 mi ENE 3.5 mph - N/A   Clear
6:51 AM 42.1 °F 37.1 °F 8.1 °F 25% 29.97 in 9.0 mi East 8.1 mph - N/A   Clear
7:51 AM 44.1 °F 37.1 °F 10.0 °F 25% 29.96 in 9.0 mi ENE 15.0 mph - N/A   Clear
8:51 AM 46.0 °F 39.0 °F 12.0 °F 25% 29.96 in 9.0 mi ENE 17.3 mph - N/A   Clear
9:51 AM 48.9 °F - 15.1 °F 26% 29.95 in 9.0 mi ENE 17.3 mph - N/A   Clear
10:51 AM 51.1 °F - 14.0 °F 23% 29.94 in 9.0 mi East 11.5 mph - N/A   Clear
11:51 AM 53.1 °F - 16.0 °F 23% 29.91 in 9.0 mi East 4.6 mph - N/A   Clear
12:51 PM 57.9 °F - 12.9 °F 17% 29.85 in 8.0 mi SW 16.1 mph 21.9 mph N/A   Clear
1:51 PM 59.0 °F - 12.9 °F 16% 29.81 in 8.0 mi WSW 24.2 mph 36.8 mph N/A   Clear
2:51 PM 59.0 °F - 12.0 °F 16% 29.79 in 8.0 mi WSW 23.0 mph 33.4 mph N/A   Clear
3:51 PM 57.0 °F - 10.0 °F 15% 29.79 in 8.0 mi West 20.7 mph - N/A   Clear
4:51 PM 55.0 °F - 8.1 °F 15% 29.78 in 8.0 mi WSW 27.6 mph 31.1 mph N/A   Clear
5:51 PM 51.1 °F - 8.1 °F 18% 29.81 in 8.0 mi West 20.7 mph - N/A   Clear
6:51 PM 50.0 °F - 10.0 °F 20% 29.82 in 9.0 mi West 17.3 mph - N/A   Clear
7:51 PM 46.9 °F - 12.0 °F 24% 29.83 in 9.0 mi West 9.2 mph - N/A   Clear
8:51 PM 45.0 °F 39.7 °F 10.0 °F 24% 29.85 in 9.0 mi West 10.4 mph 16.1 mph N/A   Clear
9:51 PM 44.1 °F 37.7 °F 12.0 °F 27% 29.85 in 9.0 mi WSW 12.7 mph - N/A   Clear
10:51 PM 42.1 °F 37.1 °F 12.0 °F 29% 29.84 in 9.0 mi WSW 8.1 mph - N/A   Clear
11:51 PM 39.9 °F 32.5 °F 10.0 °F 29% 29.83 in 9.0 mi WSW 12.7 mph 17.3 mph N/A   Partly Cloudy